PRIVATE WETTERSTATION BILLIGHEIM-ALLFELD                       ZURCK
Wetterdaten: Dienstag, 28.10.2014
Datum Zeit Temp. A. Temp. A. min Temp. A. max Feuchte A. Luftdruck Regen Wind Richtung Richtung Sonnenschein ET Solar Taupunkt Windchill Windben Empfang
28.10.2014 00:00 6,1 C 6,1 C 6,1 C 90 % 1024,3 hPa 0,0 l/m 0,0 km/h (0 Bft) SO 135 0 min 0,000 mm 0 W/m 4,6 C 6,1 C 4,8 km/h (1 Bft) 100 %
28.10.2014 00:10 6,1 C 6,1 C 6,1 C 90 % 1024,3 hPa 0,0 l/m 1,6 km/h (1 Bft) O-SO 112 0 min 0,000 mm 0 W/m 4,6 C 6,1 C 6,4 km/h (2 Bft) 100 %
28.10.2014 00:20 6,1 C 6,1 C 6,1 C 90 % 1024,2 hPa 0,0 l/m 1,6 km/h (1 Bft) O 90 0 min 0,000 mm 0 W/m 4,6 C 6,1 C 8,0 km/h (2 Bft) 100 %
28.10.2014 00:30 6,0 C 6,0 C 6,1 C 90 % 1024,1 hPa 0,0 l/m 1,6 km/h (1 Bft) O 90 0 min 0,000 mm 0 W/m 4,5 C 6,0 C 9,7 km/h (2 Bft) 100 %
28.10.2014 00:40 6,0 C 6,0 C 6,0 C 90 % 1023,9 hPa 0,0 l/m 0,0 km/h (0 Bft) SO 135 0 min 0,000 mm 0 W/m 4,5 C 6,0 C 6,4 km/h (2 Bft) 100 %
28.10.2014 00:50 6,0 C 6,0 C 6,0 C 90 % 1023,9 hPa 0,0 l/m 1,6 km/h (1 Bft) O-NO 67 0 min 0,000 mm 0 W/m 4,5 C 6,0 C 6,4 km/h (2 Bft) 100 %
28.10.2014 01:00 6,0 C 6,0 C 6,0 C 90 % 1023,8 hPa 0,0 l/m 0,0 km/h (0 Bft) SO 135 0 min 0,000 mm 0 W/m 4,5 C 6,0 C 8,0 km/h (2 Bft) 100 %
28.10.2014 01:10 6,0 C 6,0 C 6,0 C 90 % 1023,9 hPa 0,0 l/m 1,6 km/h (1 Bft) O 90 0 min 0,000 mm 0 W/m 4,5 C 6,0 C 8,0 km/h (2 Bft) 100 %
28.10.2014 01:20 5,9 C 5,9 C 6,0 C 89 % 1023,8 hPa 0,0 l/m 4,8 km/h (1 Bft) SO 135 0 min 0,000 mm 0 W/m 4,2 C 5,9 C 17,7 km/h (3 Bft) 100 %
28.10.2014 01:30 5,9 C 5,9 C 5,9 C 89 % 1023,8 hPa 0,0 l/m 1,6 km/h (1 Bft) O-SO 112 0 min 0,000 mm 0 W/m 4,2 C 5,9 C 6,4 km/h (2 Bft) 100 %
28.10.2014 01:40 5,9 C 5,9 C 5,9 C 89 % 1023,7 hPa 0,0 l/m 0,0 km/h (0 Bft) O-SO 112 0 min 0,000 mm 0 W/m 4,2 C 5,9 C 1,6 km/h (1 Bft) 100 %
28.10.2014 01:50 5,9 C 5,9 C 5,9 C 89 % 1023,6 hPa 0,0 l/m 0,0 km/h (0 Bft) O-SO 112 0 min 0,000 mm 0 W/m 4,2 C 5,9 C 6,4 km/h (2 Bft) 100 %
28.10.2014 02:00 5,9 C 5,9 C 5,9 C 89 % 1023,6 hPa 0,0 l/m 0,0 km/h (0 Bft) O 90 0 min 0,000 mm 0 W/m 4,2 C 5,9 C 6,4 km/h (2 Bft) 91 %
28.10.2014 02:10 5,9 C 5,9 C 5,9 C 89 % 1023,5 hPa 0,0 l/m 1,6 km/h (1 Bft) O-SO 112 0 min 0,000 mm 0 W/m 4,2 C 5,9 C 8,0 km/h (2 Bft) 100 %
28.10.2014 02:20 5,9 C 5,9 C 5,9 C 89 % 1023,5 hPa 0,0 l/m 1,6 km/h (1 Bft) O-SO 112 0 min 0,000 mm 0 W/m 4,2 C 5,9 C 6,4 km/h (2 Bft) 100 %
28.10.2014 02:30 5,8 C 5,8 C 5,9 C 89 % 1023,4 hPa 0,0 l/m 3,2 km/h (1 Bft) O-SO 112 0 min 0,000 mm 0 W/m 4,1 C 5,8 C 16,1 km/h (3 Bft) 100 %
28.10.2014 02:40 5,7 C 5,7 C 5,8 C 89 % 1023,3 hPa 0,0 l/m 1,6 km/h (1 Bft) O 90 0 min 0,000 mm 0 W/m 4,0 C 5,7 C 8,0 km/h (2 Bft) 100 %
28.10.2014 02:50 5,7 C 5,7 C 5,8 C 89 % 1023,2 hPa 0,0 l/m 1,6 km/h (1 Bft) O-SO 112 0 min 0,000 mm 0 W/m 4,0 C 5,7 C 8,0 km/h (2 Bft) 100 %
28.10.2014 03:00 5,7 C 5,7 C 5,8 C 89 % 1023,1 hPa 0,0 l/m 1,6 km/h (1 Bft) O-SO 112 0 min 0,000 mm 0 W/m 4,0 C 5,7 C 8,0 km/h (2 Bft) 100 %
28.10.2014 03:10 5,7 C 5,7 C 5,7 C 89 % 1023,1 hPa 0,0 l/m 1,6 km/h (1 Bft) O-SO 112 0 min 0,000 mm 0 W/m 4,0 C 5,7 C 9,7 km/h (2 Bft) 100 %
28.10.2014 03:20 5,7 C 5,7 C 5,7 C 89 % 1023,0 hPa 0,0 l/m 0,0 km/h (0 Bft) SO 135 0 min 0,000 mm 0 W/m 4,0 C 5,7 C 6,4 km/h (2 Bft) 100 %
28.10.2014 03:30 5,6 C 5,6 C 5,7 C 89 % 1023,0 hPa 0,0 l/m 3,2 km/h (1 Bft) SO 135 0 min 0,000 mm 0 W/m 3,9 C 5,6 C 8,0 km/h (2 Bft) 100 %
28.10.2014 03:40 5,6 C 5,6 C 5,6 C 89 % 1022,9 hPa 0,0 l/m 3,2 km/h (1 Bft) SO 135 0 min 0,000 mm 0 W/m 3,9 C 5,6 C 11,3 km/h (2 Bft) 100 %
28.10.2014 03:50 5,5 C 5,5 C 5,6 C 89 % 1022,9 hPa 0,0 l/m 3,2 km/h (1 Bft) SO 135 0 min 0,000 mm 0 W/m 3,8 C 5,5 C 11,3 km/h (2 Bft) 100 %
28.10.2014 04:00 5,5 C 5,5 C 5,5 C 89 % 1022,9 hPa 0,0 l/m 1,6 km/h (1 Bft) SO 135 0 min 0,000 mm 0 W/m 3,8 C 5,5 C 8,0 km/h (2 Bft) 100 %
28.10.2014 04:10 5,5 C 5,5 C 5,5 C 89 % 1022,9 hPa 0,0 l/m 1,6 km/h (1 Bft) O 90 0 min 0,000 mm 0 W/m 3,8 C 5,5 C 8,0 km/h (2 Bft) 90 %
28.10.2014 04:20 5,4 C 5,4 C 5,5 C 89 % 1023,0 hPa 0,0 l/m 1,6 km/h (1 Bft) O-SO 112 0 min 0,000 mm 0 W/m 3,7 C 5,4 C 8,0 km/h (2 Bft) 100 %
28.10.2014 04:30 5,4 C 5,4 C 5,4 C 94 % 1022,9 hPa 0,0 l/m 0,0 km/h (0 Bft) O-NO 67 0 min 0,000 mm 0 W/m 4,5 C 5,4 C 4,8 km/h (1 Bft) 100 %
28.10.2014 04:40 5,4 C 5,4 C 5,4 C 89 % 1022,9 hPa 0,0 l/m 1,6 km/h (1 Bft) O 90 0 min 0,000 mm 0 W/m 3,7 C 5,4 C 8,0 km/h (2 Bft) 100 %
28.10.2014 04:50 5,4 C 5,4 C 5,4 C 89 % 1022,8 hPa 0,0 l/m 0,0 km/h (0 Bft) SO 135 0 min 0,000 mm 0 W/m 3,7 C 5,4 C 6,4 km/h (2 Bft) 100 %
28.10.2014 05:00 5,4 C 5,4 C 5,4 C 89 % 1022,8 hPa 0,0 l/m 1,6 km/h (1 Bft) O 90 0 min 0,000 mm 0 W/m 3,7 C 5,4 C 6,4 km/h (2 Bft) 100 %
28.10.2014 05:10 5,3 C 5,3 C 5,4 C 89 % 1022,9 hPa 0,0 l/m 3,2 km/h (1 Bft) O-SO 112 0 min 0,000 mm 0 W/m 3,6 C 5,3 C 11,3 km/h (2 Bft) 100 %
28.10.2014 05:20 5,3 C 5,3 C 5,3 C 89 % 1022,9 hPa 0,0 l/m 6,4 km/h (2 Bft) O-SO 112 0 min 0,000 mm 0 W/m 3,6 C 5,3 C 16,1 km/h (3 Bft) 100 %
28.10.2014 05:30 5,3 C 5,3 C 5,3 C 88 % 1022,9 hPa 0,0 l/m 1,6 km/h (1 Bft) O-SO 112 0 min 0,000 mm 0 W/m 3,5 C 5,3 C 8,0 km/h (2 Bft) 100 %
28.10.2014 05:40 5,3 C 5,3 C 5,3 C 89 % 1022,8 hPa 0,0 l/m 1,6 km/h (1 Bft) O 90 0 min 0,000 mm 0 W/m 3,6 C 5,3 C 8,0 km/h (2 Bft) 100 %
28.10.2014 05:50 5,3 C 5,3 C 5,3 C 89 % 1022,8 hPa 0,0 l/m 1,6 km/h (1 Bft) O-SO 112 0 min 0,000 mm 0 W/m 3,6 C 5,3 C 8,0 km/h (2 Bft) 100 %
28.10.2014 06:00 5,3 C 5,3 C 5,3 C 89 % 1022,8 hPa 0,0 l/m 0,0 km/h (0 Bft) O-SO 112 0 min 0,000 mm 0 W/m 3,6 C 5,3 C 3,2 km/h (1 Bft) 100 %
28.10.2014 06:10 5,3 C 5,3 C 5,3 C 89 % 1022,8 hPa 0,0 l/m 0,0 km/h (0 Bft) O-SO 112 0 min 0,000 mm 0 W/m 3,6 C 5,3 C 4,8 km/h (1 Bft) 100 %
28.10.2014 06:20 5,3 C 5,3 C 5,3 C 88 % 1022,8 hPa 0,0 l/m 1,6 km/h (1 Bft) O 90 0 min 0,000 mm 0 W/m 3,5 C 5,3 C 8,0 km/h (2 Bft) 100 %
28.10.2014 06:30 5,3 C 5,3 C 5,3 C 89 % 1022,8 hPa 0,0 l/m 1,6 km/h (1 Bft) O-SO 112 0 min 0,000 mm 0 W/m 3,6 C 5,3 C 6,4 km/h (2 Bft) 100 %
28.10.2014 06:40 5,3 C 5,3 C 5,3 C 89 % 1022,7 hPa 0,0 l/m 0,0 km/h (0 Bft) S-SO 157 0 min 0,000 mm 0 W/m 3,6 C 5,3 C 4,8 km/h (1 Bft) 100 %
28.10.2014 06:50 5,3 C 5,3 C 5,3 C 89 % 1022,8 hPa 0,0 l/m 0,0 km/h (0 Bft) O-SO 112 0 min 0,000 mm 0 W/m 3,6 C 5,3 C 3,2 km/h (1 Bft) 100 %
28.10.2014 07:00 5,3 C 5,3 C 5,3 C 89 % 1022,8 hPa 0,0 l/m 0,0 km/h (0 Bft) O-SO 112 0 min 0,000 mm 0 W/m 3,6 C 5,3 C 3,2 km/h (1 Bft) 100 %
28.10.2014 07:10 5,3 C 5,3 C 5,3 C 89 % 1022,8 hPa 0,0 l/m 1,6 km/h (1 Bft) O-SO 112 0 min 0,000 mm 0 W/m 3,6 C 5,3 C 11,3 km/h (2 Bft) 100 %
28.10.2014 07:20 5,3 C 5,3 C 5,3 C 89 % 1022,8 hPa 0,0 l/m 0,0 km/h (0 Bft) SO 135 0 min 0,000 mm 0 W/m 3,6 C 5,3 C 6,4 km/h (2 Bft) 100 %
28.10.2014 07:30 5,3 C 5,3 C 5,3 C 89 % 1022,8 hPa 0,0 l/m 0,0 km/h (0 Bft) O 90 0 min 0,000 mm 5 W/m 3,6 C 5,3 C 6,4 km/h (2 Bft) 100 %
28.10.2014 07:40 5,3 C 5,3 C 5,3 C 89 % 1022,8 hPa 0,0 l/m 1,6 km/h (1 Bft) S-SO 157 0 min 0,000 mm 7 W/m 3,6 C 5,3 C 8,0 km/h (2 Bft) 100 %
28.10.2014 07:50 5,3 C 5,3 C 5,3 C 89 % 1022,9 hPa 0,0 l/m 0,0 km/h (0 Bft) O-SO 112 0 min 0,000 mm 9 W/m 3,6 C 5,3 C 4,8 km/h (1 Bft) 100 %
28.10.2014 08:00 5,3 C 5,3 C 5,3 C 89 % 1022,9 hPa 0,0 l/m 1,6 km/h (1 Bft) O-SO 112 0 min 0,000 mm 12 W/m 3,6 C 5,3 C 4,8 km/h (1 Bft) 100 %
28.10.2014 08:10 5,3 C 5,3 C 5,3 C 89 % 1022,8 hPa 0,0 l/m 0,0 km/h (0 Bft) S-SO 157 0 min 0,000 mm 16 W/m 3,6 C 5,3 C 8,0 km/h (2 Bft) 99 %
28.10.2014 08:20 5,4 C 5,3 C 5,4 C 89 % 1022,8 hPa 0,0 l/m 1,6 km/h (1 Bft) O-SO 112 0 min 0,000 mm 18 W/m 3,7 C 5,4 C 8,0 km/h (2 Bft) 99 %
28.10.2014 08:30 5,4 C 5,3 C 5,4 C 89 % 1022,8 hPa 0,0 l/m 0,0 km/h (0 Bft) SO 135 0 min 0,000 mm 23 W/m 3,7 C 5,4 C 8,0 km/h (2 Bft) 95 %
28.10.2014 08:40 5,5 C 5,4 C 5,5 C 94 % 1022,8 hPa 0,0 l/m 1,6 km/h (1 Bft) SO 135 0 min 0,000 mm 26 W/m 4,6 C 5,5 C 6,4 km/h (2 Bft) 91 %
28.10.2014 08:50 5,5 C 5,4 C 5,5 C 89 % 1022,8 hPa 0,0 l/m 0,0 km/h (0 Bft) S-SO 157 0 min 0,000 mm 30 W/m 3,8 C 5,5 C 1,6 km/h (1 Bft) 97 %
28.10.2014 09:00 5,6 C 5,5 C 5,6 C 89 % 1022,7 hPa 0,0 l/m 0,0 km/h (0 Bft) SO 135 0 min 0,000 mm 39 W/m 3,9 C 5,6 C 1,6 km/h (1 Bft) 98 %
28.10.2014 09:10 5,7 C 5,6 C 5,7 C 89 % 1022,6 hPa 0,0 l/m 0,0 km/h (0 Bft) S-SO 157 0 min 0,000 mm 40 W/m 4,0 C 5,7 C 4,8 km/h (1 Bft) 97 %
28.10.2014 09:20 5,7 C 5,7 C 5,7 C 89 % 1022,6 hPa 0,0 l/m 1,6 km/h (1 Bft) O-SO 112 0 min 0,000 mm 46 W/m 4,0 C 5,7 C 9,7 km/h (2 Bft) 98 %
28.10.2014 09:30 5,8 C 5,7 C 5,8 C 88 % 1022,5 hPa 0,0 l/m 1,6 km/h (1 Bft) SO 135 0 min 0,000 mm 49 W/m 4,0 C 5,8 C 6,4 km/h (2 Bft) 97 %
28.10.2014 09:40 5,9 C 5,8 C 5,9 C 88 % 1022,5 hPa 0,0 l/m 0,0 km/h (0 Bft) S-SO 157 0 min 0,000 mm 51 W/m 4,1 C 5,9 C 3,2 km/h (1 Bft) 97 %
28.10.2014 09:50 6,0 C 5,9 C 6,0 C 88 % 1022,4 hPa 0,0 l/m 1,6 km/h (1 Bft) SO 135 0 min 0,000 mm 58 W/m 4,2 C 6,0 C 4,8 km/h (1 Bft) 98 %
28.10.2014 10:00 6,0 C 6,0 C 6,0 C 88 % 1022,5 hPa 0,0 l/m 1,6 km/h (1 Bft) SO 135 0 min 0,025 mm 58 W/m 4,2 C 6,0 C 8,0 km/h (2 Bft) 98 %
28.10.2014 10:10 6,2 C 6,0 C 6,2 C 89 % 1022,5 hPa 0,0 l/m 0,0 km/h (0 Bft) S-SO 157 0 min 0,000 mm 62 W/m 4,5 C 6,2 C 3,2 km/h (1 Bft) 98 %
28.10.2014 10:20 6,2 C 6,1 C 6,2 C 88 % 1022,5 hPa 0,0 l/m 0,0 km/h (0 Bft) S-SO 157 0 min 0,000 mm 65 W/m 4,4 C 6,2 C 4,8 km/h (1 Bft) 98 %
28.10.2014 10:30 6,3 C 6,2 C 6,3 C 88 % 1022,4 hPa 0,0 l/m 1,6 km/h (1 Bft) SO 135 0 min 0,000 mm 63 W/m 4,5 C 6,3 C 4,8 km/h (1 Bft) 98 %
28.10.2014 10:40 6,3 C 6,3 C 6,3 C 87 % 1022,4 hPa 0,0 l/m 3,2 km/h (1 Bft) SO 135 0 min 0,000 mm 63 W/m 4,3 C 6,3 C 8,0 km/h (2 Bft) 98 %
28.10.2014 10:50 6,3 C 6,3 C 6,3 C 87 % 1022,3 hPa 0,0 l/m 3,2 km/h (1 Bft) SO 135 0 min 0,000 mm 65 W/m 4,3 C 6,3 C 9,7 km/h (2 Bft) 97 %
28.10.2014 11:00 6,3 C 6,3 C 6,3 C 87 % 1022,3 hPa 0,0 l/m 0,0 km/h (0 Bft) O 90 0 min 0,025 mm 63 W/m 4,3 C 6,3 C 6,4 km/h (2 Bft) 88 %
28.10.2014 11:10 6,4 C 6,3 C 6,4 C 87 % 1022,2 hPa 0,0 l/m 0,0 km/h (0 Bft) O-SO 112 0 min 0,000 mm 62 W/m 4,4 C 6,4 C 4,8 km/h (1 Bft) 97 %
28.10.2014 11:20 6,4 C 6,3 C 6,4 C 87 % 1022,2 hPa 0,0 l/m 1,6 km/h (1 Bft) SO 135 0 min 0,000 mm 63 W/m 4,4 C 6,4 C 9,7 km/h (2 Bft) 97 %
28.10.2014 11:30 6,4 C 6,3 C 6,5 C 87 % 1022,2 hPa 0,0 l/m 1,4 km/h (1 Bft) S-SO 147 0 min 0,001 mm 65 W/m 4,4 C 6,4 C 8,0 km/h (2 Bft) 100 %
28.10.2014 11:40 6,5 C 6,4 C 6,6 C 87 % 1021,9 hPa 0,0 l/m 1,8 km/h (1 Bft) O-SO 121 0 min 0,000 mm 72 W/m 4,5 C 6,5 C 9,7 km/h (2 Bft) 100 %
28.10.2014 11:50 6,5 C 6,5 C 6,6 C 86 % 1021,9 hPa 0,0 l/m 4,1 km/h (1 Bft) O-SO 122 0 min 0,000 mm 77 W/m 4,3 C 6,5 C 17,7 km/h (3 Bft) 100 %
28.10.2014 12:00 6,6 C 6,5 C 6,6 C 87 % 1021,7 hPa 0,0 l/m 1,8 km/h (1 Bft) S 178 0 min 0,000 mm 70 W/m 4,6 C 6,6 C 8,0 km/h (2 Bft) 100 %
28.10.2014 12:10 6,6 C 6,6 C 6,6 C 87 % 1021,4 hPa 0,0 l/m 3,4 km/h (1 Bft) O-SO 102 0 min 0,025 mm 72 W/m 4,6 C 6,6 C 11,3 km/h (2 Bft) 100 %
28.10.2014 12:20 6,6 C 6,6 C 6,6 C 86 % 1021,3 hPa 0,0 l/m 2,1 km/h (1 Bft) SO 137 0 min 0,000 mm 76 W/m 4,4 C 6,6 C 9,7 km/h (2 Bft) 100 %
28.10.2014 12:30 6,7 C 6,6 C 6,7 C 87 % 1021,2 hPa 0,0 l/m 0,0 km/h (0 Bft) O-SO 108 0 min 0,000 mm 77 W/m 4,7 C 6,7 C 1,6 km/h (1 Bft) 100 %
28.10.2014 12:40 6,8 C 6,7 C 6,8 C 86 % 1021,1 hPa 0,0 l/m 1,1 km/h (1 Bft) SO 127 0 min 0,000 mm 74 W/m 4,6 C 6,8 C 4,8 km/h (1 Bft) 99 %
28.10.2014 12:50 6,8 C 6,7 C 6,8 C 86 % 1021,1 hPa 0,0 l/m 1,2 km/h (1 Bft) S-SO 155 0 min 0,000 mm 72 W/m 4,6 C 6,8 C 6,4 km/h (2 Bft) 100 %
28.10.2014 13:00 6,8 C 6,8 C 6,8 C 86 % 1021,0 hPa 0,0 l/m 1,4 km/h (1 Bft) SO 140 0 min 0,026 mm 67 W/m 4,6 C 6,8 C 6,4 km/h (2 Bft) 100 %
28.10.2014 13:10 6,8 C 6,8 C 6,8 C 86 % 1020,9 hPa 0,0 l/m 3,6 km/h (1 Bft) O-NO 76 0 min 0,000 mm 69 W/m 4,6 C 6,8 C 9,7 km/h (2 Bft) 100 %
28.10.2014 13:20 6,7 C 6,7 C 6,8 C 86 % 1020,8 hPa 0,0 l/m 1,1 km/h (1 Bft) SO 135 0 min 0,000 mm 70 W/m 4,5 C 6,7 C 8,0 km/h (2 Bft) 100 %
28.10.2014 13:30 6,8 C 6,7 C 6,8 C 87 % 1020,6 hPa 0,0 l/m 1,1 km/h (1 Bft) O-SO 114 0 min 0,000 mm 70 W/m 4,8 C 6,8 C 9,7 km/h (2 Bft) 100 %
28.10.2014 13:40 6,8 C 6,7 C 6,8 C 86 % 1020,6 hPa 0,0 l/m 3,3 km/h (1 Bft) SO 135 0 min 0,000 mm 74 W/m 4,6 C 6,8 C 9,7 km/h (2 Bft) 100 %
28.10.2014 13:50 6,7 C 6,7 C 6,8 C 85 % 1020,6 hPa 0,0 l/m 6,1 km/h (2 Bft) O 101 0 min 0,000 mm 74 W/m 4,4 C 6,7 C 16,1 km/h (3 Bft) 100 %
28.10.2014 14:00 6,8 C 6,7 C 6,8 C 86 % 1020,4 hPa 0,0 l/m 1,8 km/h (1 Bft) O-SO 113 0 min 0,025 mm 97 W/m 4,6 C 6,8 C 11,3 km/h (2 Bft) 100 %
28.10.2014 14:10 6,8 C 6,7 C 6,8 C 85 % 1020,5 hPa 0,0 l/m 0,9 km/h (0 Bft) O 91 0 min 0,000 mm 77 W/m 4,5 C 6,8 C 6,4 km/h (2 Bft) 100 %
28.10.2014 14:20 6,9 C 6,8 C 6,9 C 85 % 1020,3 hPa 0,0 l/m 1,3 km/h (1 Bft) SO 129 0 min 0,000 mm 84 W/m 4,6 C 6,9 C 8,0 km/h (2 Bft) 100 %
28.10.2014 14:30 6,9 C 6,9 C 6,9 C 85 % 1020,3 hPa 0,0 l/m 2,1 km/h (1 Bft) O 83 0 min 0,000 mm 83 W/m 4,6 C 6,9 C 9,7 km/h (2 Bft) 100 %
28.10.2014 14:40 7,0 C 6,9 C 7,0 C 85 % 1020,2 hPa 0,0 l/m 0,0 km/h (0 Bft) W 281 0 min 0,000 mm 74 W/m 4,7 C 7,0 C 1,6 km/h (1 Bft) 100 %
28.10.2014 14:50 7,1 C 7,0 C 7,1 C 85 % 1020,0 hPa 0,0 l/m 0,6 km/h (0 Bft) O 101 0 min 0,000 mm 70 W/m 4,8 C 7,1 C 6,4 km/h (2 Bft) 100 %
28.10.2014 15:00 7,1 C 7,1 C 7,1 C 85 % 1019,8 hPa 0,0 l/m 0,4 km/h (0 Bft) O 96 0 min 0,000 mm 65 W/m 4,8 C 7,1 C 6,4 km/h (2 Bft) 91 %
28.10.2014 15:10 7,2 C 7,1 C 7,2 C 86 % 1019,6 hPa 0,0 l/m 0,0 km/h (0 Bft) O-SO 103 0 min 0,025 mm 62 W/m 5,0 C 7,2 C 0,0 km/h (0 Bft) 100 %
28.10.2014 15:20 7,2 C 7,2 C 7,2 C 86 % 1019,6 hPa 0,0 l/m 0,2 km/h (0 Bft) O-SO 123 0 min 0,000 mm 62 W/m 5,0 C 7,2 C 4,8 km/h (1 Bft) 100 %
28.10.2014 15:30 7,3 C 7,2 C 7,3 C 86 % 1019,5 hPa 0,0 l/m 0,2 km/h (0 Bft) O-NO 61 0 min 0,000 mm 56 W/m 5,1 C 7,3 C 4,8 km/h (1 Bft) 100 %
28.10.2014 15:40 7,3 C 7,3 C 7,3 C 86 % 1019,5 hPa 0,0 l/m 0,2 km/h (0 Bft) N-NO 19 0 min 0,000 mm 47 W/m 5,1 C 7,3 C 4,8 km/h (1 Bft) 100 %
28.10.2014 15:50 7,3 C 7,3 C 7,3 C 86 % 1019,4 hPa 0,0 l/m 0,0 km/h (0 Bft) N-NO 19 0 min 0,000 mm 40 W/m 5,1 C 7,3 C 0,0 km/h (0 Bft) 100 %
28.10.2014 16:00 7,3 C 7,3 C 7,3 C 85 % 1019,4 hPa 0,0 l/m 0,2 km/h (0 Bft) N-NO 19 0 min 0,026 mm 33 W/m 4,9 C 7,3 C 1,6 km/h (1 Bft) 100 %
28.10.2014 16:10 7,3 C 7,2 C 7,3 C 86 % 1019,4 hPa 0,0 l/m 0,1 km/h (0 Bft) N-NW 333 0 min 0,000 mm 26 W/m 5,1 C 7,3 C 3,2 km/h (1 Bft) 100 %
28.10.2014 16:20 7,3 C 7,2 C 7,3 C 87 % 1019,3 hPa 0,0 l/m 0,0 km/h (0 Bft) N-NW 337 0 min 0,000 mm 21 W/m 5,3 C 7,3 C 1,6 km/h (1 Bft) 100 %
28.10.2014 16:30 7,2 C 7,2 C 7,3 C 86 % 1019,1 hPa 0,0 l/m 0,2 km/h (0 Bft) W 261 0 min 0,000 mm 16 W/m 5,0 C 7,2 C 4,8 km/h (1 Bft) 100 %
28.10.2014 16:40 7,2 C 7,2 C 7,2 C 87 % 1019,1 hPa 0,0 l/m 0,1 km/h (0 Bft) O-NO 67 0 min 0,000 mm 11 W/m 5,2 C 7,2 C 4,8 km/h (1 Bft) 100 %
28.10.2014 16:50 7,2 C 7,2 C 7,2 C 87 % 1019,1 hPa 0,0 l/m 0,2 km/h (0 Bft) O-SO 116 0 min 0,000 mm 5 W/m 5,2 C 7,2 C 4,8 km/h (1 Bft) 100 %
28.10.2014 17:00 7,1 C 7,1 C 7,2 C 88 % 1019,1 hPa 0,0 l/m 0,1 km/h (0 Bft) NO 38 0 min 0,000 mm 0 W/m 5,2 C 7,1 C 3,2 km/h (1 Bft) 100 %
28.10.2014 17:10 7,1 C 7,1 C 7,1 C 88 % 1019,1 hPa 0,0 l/m 0,3 km/h (0 Bft) O-SO 109 0 min 0,000 mm 0 W/m 5,2 C 7,1 C 4,8 km/h (1 Bft) 99 %
28.10.2014 17:20 7,0 C 7,0 C 7,1 C 88 % 1019,0 hPa 0,0 l/m 0,2 km/h (0 Bft) N 5 0 min 0,000 mm 0 W/m 5,2 C 7,0 C 3,2 km/h (1 Bft) 100 %
28.10.2014 17:30 6,9 C 6,9 C 7,0 C 88 % 1019,1 hPa 0,0 l/m 0,3 km/h (0 Bft) O-SO 111 0 min 0,000 mm 0 W/m 5,1 C 6,9 C 6,4 km/h (2 Bft) 100 %
28.10.2014 17:40 6,9 C 6,9 C 6,9 C 88 % 1019,0 hPa 0,0 l/m 0,2 km/h (0 Bft) N 5 0 min 0,000 mm 0 W/m 5,1 C 6,9 C 3,2 km/h (1 Bft) 100 %
28.10.2014 17:50 6,9 C 6,8 C 6,9 C 88 % 1019,1 hPa 0,0 l/m 0,2 km/h (0 Bft) N 5 0 min 0,000 mm 0 W/m 5,1 C 6,9 C 3,2 km/h (1 Bft) 100 %
28.10.2014 18:00 6,8 C 6,8 C 6,9 C 88 % 1019,1 hPa 0,0 l/m 0,4 km/h (0 Bft) N-NO 12 0 min 0,000 mm 0 W/m 5,0 C 6,8 C 4,8 km/h (1 Bft) 100 %
28.10.2014 18:10 6,7 C 6,7 C 6,8 C 89 % 1018,9 hPa 0,0 l/m 0,4 km/h (0 Bft) N-NO 23 0 min 0,000 mm 0 W/m 5,0 C 6,7 C 3,2 km/h (1 Bft) 100 %
28.10.2014 18:20 6,6 C 6,6 C 6,7 C 88 % 1018,9 hPa 0,0 l/m 0,0 km/h (0 Bft) N-NO 29 0 min 0,000 mm 0 W/m 4,8 C 6,6 C 1,6 km/h (1 Bft) 99 %
28.10.2014 18:30 6,4 C 6,4 C 6,6 C 88 % 1018,9 hPa 0,0 l/m 0,0 km/h (0 Bft) W-NW 289 0 min 0,000 mm 0 W/m 4,6 C 6,4 C 3,2 km/h (1 Bft) 100 %
28.10.2014 18:40 6,2 C 6,2 C 6,4 C 88 % 1018,9 hPa 0,0 l/m 0,1 km/h (0 Bft) NO 50 0 min 0,000 mm 0 W/m 4,4 C 6,2 C 4,8 km/h (1 Bft) 91 %
28.10.2014 18:50 5,9 C 5,9 C 6,2 C 88 % 1018,8 hPa 0,0 l/m 0,3 km/h (0 Bft) S-SO 165 0 min 0,000 mm 0 W/m 4,1 C 5,9 C 4,8 km/h (1 Bft) 100 %
28.10.2014 19:00 5,7 C 5,7 C 5,9 C 89 % 1018,7 hPa 0,0 l/m 0,2 km/h (0 Bft) S-SW 202 0 min 0,000 mm 0 W/m 4,0 C 5,7 C 4,8 km/h (1 Bft) 100 %
28.10.2014 19:10 5,4 C 5,4 C 5,7 C 89 % 1018,7 hPa 0,0 l/m 0,0 km/h (0 Bft) N-NW 335 0 min 0,000 mm 0 W/m 3,7 C 5,4 C 0,0 km/h (0 Bft) 100 %
28.10.2014 19:20 5,2 C 5,2 C 5,4 C 89 % 1018,6 hPa 0,0 l/m 0,3 km/h (0 Bft) N-NW 333 0 min 0,000 mm 0 W/m 3,5 C 5,2 C 3,2 km/h (1 Bft) 100 %
28.10.2014 19:30 4,9 C 4,9 C 5,2 C 90 % 1018,6 hPa 0,0 l/m 0,3 km/h (0 Bft) N-NW 333 0 min 0,000 mm 0 W/m 3,4 C 4,9 C 3,2 km/h (1 Bft) 100 %
28.10.2014 19:40 4,7 C 4,7 C 4,9 C 90 % 1018,6 hPa 0,0 l/m 0,0 km/h (0 Bft) N-NW 333 0 min 0,000 mm 0 W/m 3,2 C 4,7 C 1,6 km/h (1 Bft) 100 %
28.10.2014 19:50 4,5 C 4,5 C 4,7 C 90 % 1018,6 hPa 0,0 l/m 0,1 km/h (0 Bft) N-NW 333 0 min 0,000 mm 0 W/m 3,0 C 4,5 C 3,2 km/h (1 Bft) 99 %
28.10.2014 20:00 4,3 C 4,3 C 4,5 C 91 % 1018,5 hPa 0,0 l/m 0,2 km/h (0 Bft) N-NW 333 0 min 0,000 mm 0 W/m 3,0 C 4,3 C 1,6 km/h (1 Bft) 99 %
28.10.2014 20:10 4,1 C 4,1 C 4,3 C 91 % 1018,5 hPa 0,0 l/m 0,3 km/h (0 Bft) N-NW 333 0 min 0,000 mm 0 W/m 2,8 C 4,1 C 3,2 km/h (1 Bft) 99 %
28.10.2014 20:20 4,0 C 4,0 C 4,1 C 91 % 1018,5 hPa 0,0 l/m 0,0 km/h (0 Bft) N-NW 333 0 min 0,000 mm 0 W/m 2,7 C 4,0 C 0,0 km/h (0 Bft) 99 %
28.10.2014 20:30 3,9 C 3,9 C 4,0 C 91 % 1018,5 hPa 0,0 l/m 0,2 km/h (0 Bft) N-NW 333 0 min 0,000 mm 0 W/m 2,6 C 3,9 C 3,2 km/h (1 Bft) 100 %
28.10.2014 20:40 3,9 C 3,9 C 3,9 C 91 % 1018,5 hPa 0,0 l/m 0,1 km/h (0 Bft) N-NW 333 0 min 0,000 mm 0 W/m 2,6 C 3,9 C 3,2 km/h (1 Bft) 100 %
28.10.2014 20:50 3,9 C 3,9 C 3,9 C 91 % 1018,5 hPa 0,0 l/m 0,0 km/h (0 Bft) N-NW 333 0 min 0,000 mm 0 W/m 2,6 C 3,9 C 1,6 km/h (1 Bft) 100 %
28.10.2014 21:00 4,1 C 3,9 C 4,1 C 91 % 1018,5 hPa 0,0 l/m 0,0 km/h (0 Bft) N-NW 333 0 min 0,000 mm 0 W/m 2,8 C 4,1 C 0,0 km/h (0 Bft) 99 %
28.10.2014 21:10 4,2 C 4,1 C 4,2 C 91 % 1018,4 hPa 0,0 l/m 0,0 km/h (0 Bft) N-NW 337 0 min 0,000 mm 0 W/m 2,9 C 4,2 C 3,2 km/h (1 Bft) 99 %
28.10.2014 21:20 4,4 C 4,2 C 4,4 C 91 % 1018,4 hPa 0,0 l/m 0,0 km/h (0 Bft) N-NW 337 0 min 0,000 mm 0 W/m 3,1 C 4,4 C 1,6 km/h (1 Bft) 100 %
28.10.2014 21:30 4,5 C 4,4 C 4,5 C 91 % 1018,5 hPa 0,0 l/m 0,0 km/h (0 Bft) N-NW 337 0 min 0,000 mm 0 W/m 3,2 C 4,5 C 1,6 km/h (1 Bft) 99 %
28.10.2014 21:40 4,5 C 4,5 C 4,6 C 91 % 1018,6 hPa 0,0 l/m 1,6 km/h (1 Bft) N-NW 337 0 min 0,000 mm 0 W/m 3,2 C 4,5 C 4,8 km/h (1 Bft) 99 %
28.10.2014 21:50 4,6 C 4,5 C 4,6 C 91 % 1018,6 hPa 0,0 l/m 0,0 km/h (0 Bft) N-NW 337 0 min 0,000 mm 0 W/m 3,3 C 4,6 C 1,6 km/h (1 Bft) 99 %
28.10.2014 22:00 4,7 C 4,6 C 4,7 C 91 % 1018,6 hPa 0,0 l/m 0,0 km/h (0 Bft) N-NW 337 0 min 0,000 mm 0 W/m 3,4 C 4,7 C 4,8 km/h (1 Bft) 100 %
28.10.2014 22:10 4,8 C 4,7 C 4,8 C 91 % 1018,5 hPa 0,0 l/m 0,0 km/h (0 Bft) N-NW 337 0 min 0,000 mm 0 W/m 3,5 C 4,8 C 1,6 km/h (1 Bft) 99 %
28.10.2014 22:20 4,9 C 4,8 C 4,9 C 91 % 1018,5 hPa 0,0 l/m 0,0 km/h (0 Bft) N-NW 337 0 min 0,000 mm 0 W/m 3,6 C 4,9 C 3,2 km/h (1 Bft) 90 %
28.10.2014 22:30 5,0 C 4,9 C 5,0 C 91 % 1018,5 hPa 0,0 l/m 0,0 km/h (0 Bft) N 0 0 min 0,000 mm 0 W/m 3,7 C 5,0 C 0,0 km/h (0 Bft) 100 %
28.10.2014 22:40 5,1 C 5,0 C 5,1 C 91 % 1018,4 hPa 0,0 l/m 0,0 km/h (0 Bft) N 0 0 min 0,000 mm 0 W/m 3,8 C 5,1 C 0,0 km/h (0 Bft) 99 %
28.10.2014 22:50 5,2 C 5,1 C 5,2 C 91 % 1018,3 hPa 0,0 l/m 0,0 km/h (0 Bft) N 0 0 min 0,000 mm 0 W/m 3,9 C 5,2 C 0,0 km/h (0 Bft) 100 %
28.10.2014 23:00 5,2 C 5,2 C 5,2 C 91 % 1018,3 hPa 0,0 l/m 0,0 km/h (0 Bft) N 0 0 min 0,000 mm 0 W/m 3,9 C 5,2 C 0,0 km/h (0 Bft) 99 %
28.10.2014 23:10 5,3 C 5,2 C 5,3 C 91 % 1018,2 hPa 0,0 l/m 0,0 km/h (0 Bft) N 0 0 min 0,000 mm 0 W/m 4,0 C 5,3 C 0,0 km/h (0 Bft) 100 %
28.10.2014 23:20 5,4 C 5,3 C 5,4 C 91 % 1018,2 hPa 0,0 l/m 0,0 km/h (0 Bft) N-NW 337 0 min 0,000 mm 0 W/m 4,1 C 5,4 C 1,6 km/h (1 Bft) 99 %
28.10.2014 23:30 5,4 C 5,4 C 5,4 C 91 % 1018,3 hPa 0,0 l/m 0,0 km/h (0 Bft) N-NW 337 0 min 0,000 mm 0 W/m 4,1 C 5,4 C 3,2 km/h (1 Bft) 99 %
28.10.2014 23:40 5,4 C 5,4 C 5,5 C 91 % 1018,2 hPa 0,0 l/m 0,0 km/h (0 Bft) N-NW 337 0 min 0,000 mm 0 W/m 4,1 C 5,4 C 3,2 km/h (1 Bft) 100 %
28.10.2014 23:50 5,5 C 5,4 C 5,5 C 91 % 1018,4 hPa 0,0 l/m 0,0 km/h (0 Bft) N 0 0 min 0,000 mm 0 W/m 4,2 C 5,5 C 0,0 km/h (0 Bft) 100 %
_ Min-Zeit 20:30 20:30 20:40 13:50 23:10 - 00:00 - - - - - 20:30 20:30 15:10 11:00
Minimum _ 3,9 C 3,9 C 3,9 C 85 % 1018,2 hPa - 0,0 km/h (0 Bft) - - - - - 2,6 C 3,9 C 0,0 km/h (0 Bft) 88 %
_ Max-Zeit 15:30 15:40 15:30 04:30 00:00 00:00 05:20 - - 00:00 13:00 14:00 16:20 15:30 01:20 00:00
Maximum _ 7,3 C 7,3 C 7,3 C 94 % 1024,3 hPa 0,0 l/m 6,4 km/h
O-SO (2 Bft)
- - 0 min 0,026 mm 97 W/m 5,3 C 7,3 C 17,7 km/h
O-SO (3 Bft)
100 %
Durchschnitt _ 5,9 C 5,8 C 5,9 C 89 % 1021,1 hPa #0,0 l/m 0,9 km/h (0 Bft) O-SO - #0 min. #0,178 mm 53 W/m 4,1 C 5,9 C 5,7 km/h (1 Bft) 99 %
PRIVATE WETTERSTATION BILLIGHEIM-ALLFELD - www.neckar-odenwald-wetter.de - Holger Sonntag